Wetterstats.de || Aktuelle Messwerte || Aktuelle Wetterkarten NEU! || Radar / Satellit NEU! || Wetterarchiv || Langzeitwerte NEU! || Klim. Kenntage || Met. Ereignisse || Agrarwerte || Echtzeitwerte

Monatsübersicht für März 2020 Diagramm
 
Wetter Information zur Wetteranzeige
Zeitraffer
Tageslänge (hh:mm)
Höchsttemperatur in °C
Uhrzeit
Tiefsttemperatur in °C
Uhrzeit
Luftfeuchte (max., in %)
Uhrzeit
Luftfeuchte (min., in %)
Uhrzeit
Luftdruck (max., in hPa)
Uhrzeit
Luftdruck (min., in hPa)
Uhrzeit
Luftdruck (Ø, in hPa)
Regenrate (max, mm/h)
Uhrzeit
Niederschlag in mm
Verdunstung in mm
Solar in W/m² (Ø)
Solar in W/m² (max.)
UV-Index (max.)
Sonnenscheindauer (hh:mm)
Windrichtung (Ø)
Windstärke (Ø in km/h)
Windstärke (Ø in bft)
Windböe (max., in km/h)
Uhrzeit
Windböe (max., in bft)
Uhrzeit
Taupunkt (max., in °C)
Uhrzeit
Taupunkt (min., in °C)
Uhrzeit
Windchill (min., in °C)
Uhrzeit
Gewitterindex (max.)
Uhrzeit
Waldbrandindex (max.)
Uhrzeit
Graslandfeuerindex (max.)
Uhrzeit
Staubsturm-Index (max.)
Uhrzeit
01
Zeitraffer
10:58
11.0
12:20 Uhr
5.7
07:05 Uhr

87
14:00 Uhr
58
12:10 Uhr
996.2
07:55 Uhr

993.9
23:40 Uhr
995.1
2,400
07:50 Uhr
0,800
0.813
103
284
09:10 Uhr
0.6
12:05 Uhr

02:16:00
1,5
0
12,9
13:30 Uhr

2
6.6
14:55 Uhr
1.7
06:35 Uhr
5.4
22:45 Uhr
0
00:00 Uhr
0.0
00:00 Uhr
0.0
00:00 Uhr
0.0
00:00 Uhr
02
Zeitraffer
11:02
9.2
14:40 Uhr
4.0
23:50 Uhr

92
04:45 Uhr
65
15:10 Uhr
994.3
19:40 Uhr

990.5
06:25 Uhr
992.9
4,800
03:10 Uhr
2,800
0.457
66
307
10:10 Uhr
0.7
12:55 Uhr

00:14:00
1,4
0
19,3
03:20 Uhr

3
5.4
10:10 Uhr
1.9
23:50 Uhr
4.0
23:50 Uhr
0
00:00 Uhr
0.0
00:00 Uhr
0.0
00:00 Uhr
0.0
00:00 Uhr
03
Zeitraffer
11:06
7.8
14:20 Uhr
3.4
23:50 Uhr

90
16:45 Uhr
82
14:55 Uhr
1005.7
23:45 Uhr

993.2
02:25 Uhr
998.0
2,400
17:15 Uhr
0,200
0.178
49
138
10:50 Uhr
0.0
00:00 Uhr

00:00:00
1,2
0
14,5
00:50 Uhr

3
5.1
14:10 Uhr
1.7
00:30 Uhr
1.3
02:25 Uhr
0
00:00 Uhr
0.0
00:00 Uhr
0.0
00:00 Uhr
0.0
00:00 Uhr
04
Zeitraffer
11:09
8.9
14:25 Uhr
1.7
04:15 Uhr

90
00:00 Uhr
61
15:20 Uhr
1010.4
10:05 Uhr

1005.7
00:00 Uhr
1009.3
0,000
00:00 Uhr
0,000
0.584
100
511
12:45 Uhr
0.7
12:45 Uhr

01:26:00
0,2
0
6,4
13:00 Uhr

1
4.2
11:50 Uhr
0.0
03:30 Uhr
1.7
04:15 Uhr
0
00:00 Uhr
0.0
00:00 Uhr
0.0
00:00 Uhr
0.0
00:00 Uhr
05
Zeitraffer
11:14
10.1
14:50 Uhr
2.3
06:25 Uhr

91
06:50 Uhr
51
17:20 Uhr
1009.4
00:00 Uhr

994.7
23:50 Uhr
1003.3
0,000
00:00 Uhr
0,000
1.016
149
479
12:40 Uhr
1.0
11:50 Uhr

02:45:00
2,6
1
22,5
15:50 Uhr

4
3.6
11:20 Uhr
-0.2
17:20 Uhr
0.6
23:35 Uhr
0
00:00 Uhr
0.0
00:00 Uhr
0.0
00:00 Uhr
0.0
00:00 Uhr
06
Zeitraffer
11:18
6.8
16:55 Uhr
3.3
06:15 Uhr

96
13:15 Uhr
70
00:00 Uhr
999.1
23:50 Uhr

991.5
06:35 Uhr
993.6
4,800
03:55 Uhr
7,000
0.203
24
63
14:45 Uhr
0.0
00:00 Uhr

00:00:00
3,4
1
22,5
00:40 Uhr

4
6.2
16:55 Uhr
0.3
00:35 Uhr
-0.3
06:35 Uhr
0
00:00 Uhr
0.0
00:00 Uhr
0.0
00:00 Uhr
0.0
00:00 Uhr
07
Zeitraffer
11:22
6.5
18:00 Uhr
2.6
23:55 Uhr

96
00:00 Uhr
74
18:25 Uhr
1019.7
23:55 Uhr

999.2
00:00 Uhr
1010.9
2,400
01:25 Uhr
0,200
0.178
24
75
13:10 Uhr
0.0
00:00 Uhr

00:00:00
0,6
0
8,0
00:50 Uhr

2
4.1
00:00 Uhr
0.6
23:45 Uhr
2.6
23:55 Uhr
0
00:00 Uhr
0.0
00:00 Uhr
0.0
00:00 Uhr
0.0
00:00 Uhr
08
Zeitraffer
11:27
9.4
14:35 Uhr
1.8
02:20 Uhr

90
02:35 Uhr
71
14:25 Uhr
1019.8
00:45 Uhr

1010.9
23:40 Uhr
1015.7
0,000
00:00 Uhr
0,000
0.584
89
189
07:50 Uhr
0.6
13:10 Uhr

00:40:00
1,6
0
17,7
15:30 Uhr

3
4.7
16:20 Uhr
0.0
06:20 Uhr
1.8
02:20 Uhr
0
00:00 Uhr
0.0
00:00 Uhr
0.0
00:00 Uhr
0.0
00:00 Uhr
09
Zeitraffer
11:31
10.7
14:30 Uhr
5.9
23:25 Uhr

94
10:35 Uhr
76
03:45 Uhr
1013.6
22:55 Uhr

1009.1
05:05 Uhr
1011.0
2,400
07:40 Uhr
2,000
0.432
52
150
14:15 Uhr
0.5
11:30 Uhr

00:00:00
0,3
0
9,7
01:10 Uhr

2
7.9
11:30 Uhr
3.2
03:45 Uhr
5.9
23:25 Uhr
0
00:00 Uhr
0.0
00:00 Uhr
0.0
00:00 Uhr
0.0
00:00 Uhr
10
Zeitraffer
11:34
9.8
23:55 Uhr
4.4
05:05 Uhr

95
20:30 Uhr
76
09:30 Uhr
1013.5
00:00 Uhr

998.5
23:55 Uhr
1005.8
2,400
06:45 Uhr
3,200
0.279
53
292
09:25 Uhr
0.0
00:00 Uhr

00:21:00
1,9
0
20,9
10:35 Uhr

4
9.0
23:50 Uhr
2.1
06:35 Uhr
4.4
05:05 Uhr
2
23:45 Uhr
0.0
00:00 Uhr
0.0
00:00 Uhr
0.0
00:00 Uhr
11
Zeitraffer
11:39
13.6
13:10 Uhr
7.8
06:45 Uhr

96
00:00 Uhr
55
13:15 Uhr
1011.0
18:55 Uhr

998.3
00:05 Uhr
1007.1
2,400
00:30 Uhr
1,600
1.067
172
584
13:00 Uhr
1.4
11:55 Uhr

03:36:00
0,8
0
11,3
01:05 Uhr

2
9.7
00:50 Uhr
4.4
13:30 Uhr
7.8
06:45 Uhr
2
00:00 Uhr
0.0
00:00 Uhr
0.0
00:00 Uhr
0.0
00:00 Uhr
12
Zeitraffer
11:43
14.0
10:45 Uhr
6.8
21:45 Uhr

95
03:35 Uhr
38
16:20 Uhr
1009.0
23:35 Uhr

1000.3
08:15 Uhr
1005.3
4,800
10:55 Uhr
1,200
0.711
70
465
10:35 Uhr
1.0
10:35 Uhr

00:20:00
2,0
0
16,1
14:10 Uhr

3
10.5
04:35 Uhr
-3.9
16:40 Uhr
6.8
21:45 Uhr
2
01:50 Uhr
0.0
00:00 Uhr
0.0
00:00 Uhr
0.0
00:00 Uhr
13
Zeitraffer
11:47
9.9
14:25 Uhr
4.0
23:55 Uhr

79
20:00 Uhr
56
11:40 Uhr
1018.7
23:55 Uhr

1007.7
11:45 Uhr
1010.6
0,000
00:00 Uhr
0,000
0.813
87
517
12:25 Uhr
0.6
11:10 Uhr

00:20:00
1,5
0
16,1
11:15 Uhr

3
4.1
17:00 Uhr
-0.7
00:10 Uhr
4.0
23:55 Uhr
0
00:00 Uhr
0.0
00:00 Uhr
0.0
00:00 Uhr
0.0
00:00 Uhr
14
Zeitraffer
11:51
9.2
12:05 Uhr
-0.3
06:45 Uhr

89
07:05 Uhr
38
12:05 Uhr
1025.7
11:30 Uhr

1018.9
00:00 Uhr
1024.0
0,000
00:00 Uhr
0,000
1.219
204
527
12:10 Uhr
1.1
11:35 Uhr

06:03:00
1,1
0
20,9
15:10 Uhr

4
0.5
08:15 Uhr
-6.5
16:45 Uhr
-0.3
06:45 Uhr
0
00:00 Uhr
0.0
00:00 Uhr
0.0
00:00 Uhr
0.0
00:00 Uhr
15
Zeitraffer
11:55
12.1
13:10 Uhr
0.7
05:45 Uhr

64
06:00 Uhr
24
16:30 Uhr
1025.2
00:00 Uhr

1016.5
20:30 Uhr
1020.6
0,000
00:00 Uhr
0,000
1.803
204
504
11:25 Uhr
1.1
11:40 Uhr

05:43:00
3,8
1
24,1
08:50 Uhr

4
-0.2
13:05 Uhr
-8.6
16:30 Uhr
-0.3
05:10 Uhr
0
00:00 Uhr
0.0
00:00 Uhr
0.3
15:00 Uhr
0.0
00:00 Uhr


 
Wetter Information zur Wetteranzeige
Zeitraffer
Tageslänge (hh:mm)
Höchsttemperatur in °C
Uhrzeit
Tiefsttemperatur in °C
Uhrzeit
Luftfeuchte (max., in %)
Uhrzeit
Luftfeuchte (min., in %)
Uhrzeit
Luftdruck (max., in hPa)
Uhrzeit
Luftdruck (min., in hPa)
Uhrzeit
Luftdruck (Ø, in hPa)
Regenrate (max, mm/h)
Uhrzeit
Niederschlag in mm
Verdunstung in mm
Solar in W/m² (Ø)
Solar in W/m² (max.)
UV-Index (max.)
Sonnenscheindauer (hh:mm)
Windrichtung (Ø)
Windstärke (Ø in km/h)
Windstärke (Ø in bft)
Windböe (max., in km/h)
Uhrzeit
Windböe (max., in bft)
Uhrzeit
Taupunkt (max., in °C)
Uhrzeit
Taupunkt (min., in °C)
Uhrzeit
Windchill (min., in °C)
Uhrzeit
Gewitterindex (max.)
Uhrzeit
Waldbrandindex (max.)
Uhrzeit
Graslandfeuerindex (max.)
Uhrzeit
Staubsturm-Index (max.)
Uhrzeit
16
Zeitraffer
11:59
16.8
14:05 Uhr
4.4
06:00 Uhr

82
23:45 Uhr
37
11:40 Uhr
1024.2
23:05 Uhr

1016.4
02:45 Uhr
1019.2
0,000
00:00 Uhr
0,000
1.549
197
535
12:15 Uhr
1.4
12:15 Uhr

05:05:00
0,7
0
12,9
00:45 Uhr

2
6.0
18:20 Uhr
-4.4
02:55 Uhr
4.4
06:00 Uhr
0
00:00 Uhr
0.0
00:00 Uhr
0.6
12:00 Uhr
0.0
00:00 Uhr
17
Zeitraffer
12:04
15.6
12:10 Uhr
3.8
05:10 Uhr

91
05:15 Uhr
41
17:50 Uhr
1028.9
21:30 Uhr

1023.9
00:05 Uhr
1026.8
0,000
00:00 Uhr
0,000
0.813
100
477
12:00 Uhr
1.3
11:55 Uhr

01:14:00
0,2
0
8,0
13:50 Uhr

2
8.4
12:10 Uhr
0.9
17:55 Uhr
3.8
05:10 Uhr
0
00:00 Uhr
0.0
00:00 Uhr
0.7
15:55 Uhr
0.0
00:00 Uhr
18
Zeitraffer
12:08
18.0
13:30 Uhr
7.5
05:35 Uhr

79
07:15 Uhr
24
12:55 Uhr
1028.0
00:00 Uhr

1023.4
16:35 Uhr
1025.4
0,000
00:00 Uhr
0,000
1.448
167
494
11:30 Uhr
1.5
11:25 Uhr

04:00:00
0,5
0
9,7
11:05 Uhr

2
5.7
22:05 Uhr
-3.3
12:55 Uhr
7.5
05:35 Uhr
0
00:00 Uhr
0.4
13:00 Uhr
1.2
13:05 Uhr
0.0
00:00 Uhr
19
Zeitraffer
12:11
15.3
11:45 Uhr
8.0
23:55 Uhr

83
19:05 Uhr
63
00:00 Uhr
1026.3
19:10 Uhr

1023.2
05:00 Uhr
1024.7
0,000
00:00 Uhr
0,000
0.864
90
320
09:55 Uhr
1.1
11:35 Uhr

00:02:00
1,6
0
19,3
18:25 Uhr

3
9.2
11:45 Uhr
5.0
21:05 Uhr
5.9
18:55 Uhr
0
00:00 Uhr
0.0
00:00 Uhr
0.4
00:00 Uhr
0.0
00:00 Uhr
20
Zeitraffer
12:16
10.3
15:25 Uhr
5.5
23:45 Uhr

88
04:45 Uhr
49
16:30 Uhr
1027.9
23:35 Uhr

1025.0
15:40 Uhr
1026.0
0,000
00:00 Uhr
0,000
0.610
56
155
13:00 Uhr
0.7
13:00 Uhr

00:00:00
2,9
1
24,1
22:30 Uhr

4
5.4
00:05 Uhr
-0.7
17:10 Uhr
1.4
23:45 Uhr
0
00:00 Uhr
0.0
00:00 Uhr
0.6
16:40 Uhr
0.0
00:00 Uhr
21
Zeitraffer
12:20
6.6
12:00 Uhr
0.7
23:45 Uhr

88
06:25 Uhr
39
14:50 Uhr
1034.2
23:20 Uhr

1027.8
00:00 Uhr
1031.1
0,000
00:00 Uhr
0,000
1.524
153
766
12:45 Uhr
1.5
11:55 Uhr

03:52:00
8,2
2
37,0
10:40 Uhr

5
2.3
00:20 Uhr
-6.6
14:35 Uhr
-4.0
10:20 Uhr
0
00:00 Uhr
0.1
14:50 Uhr
1.1
14:40 Uhr
0.0
00:00 Uhr
22
Zeitraffer
12:24
5.3
15:20 Uhr
-1.7
05:40 Uhr

80
05:50 Uhr
28
14:40 Uhr
1040.0
23:55 Uhr

1034.2
00:00 Uhr
1036.8
0,000
00:00 Uhr
0,000
1.651
210
669
11:25 Uhr
1.4
11:35 Uhr

05:56:00
5,2
1
33,8
08:50 Uhr

5
-3.4
08:10 Uhr
-12.1
16:25 Uhr
-3.8
09:00 Uhr
0
00:00 Uhr
0.6
15:15 Uhr
1.9
17:00 Uhr
0.0
00:00 Uhr
23
Zeitraffer
12:28
5.2
15:50 Uhr
-3.1
06:00 Uhr

63
05:50 Uhr
31
13:40 Uhr
1041.6
09:05 Uhr

1037.8
16:50 Uhr
1039.7
0,000
00:00 Uhr
0,000
1.601
232
563
11:45 Uhr
1.3
11:25 Uhr

06:29:00
3,5
1
24,1
12:25 Uhr

4
-7.4
08:35 Uhr
-11.2
12:55 Uhr
-4.5
07:05 Uhr
0
00:00 Uhr
0.7
14:15 Uhr
2.1
14:00 Uhr
0.0
00:00 Uhr
24
Zeitraffer
12:32
7.7
16:30 Uhr
-2.8
05:15 Uhr

64
06:00 Uhr
24
15:50 Uhr
1039.7
08:40 Uhr

1035.3
17:50 Uhr
1037.4
0,000
00:00 Uhr
0,000
1.753
226
567
12:00 Uhr
1.4
11:30 Uhr

06:41:00
3,0
1
22,5
09:45 Uhr

4
-7.4
00:35 Uhr
-11.8
15:50 Uhr
-2.8
05:15 Uhr
0
00:00 Uhr
1.0
15:30 Uhr
2.5
15:40 Uhr
0.0
00:00 Uhr
25
Zeitraffer
12:36
9.3
17:00 Uhr
-0.9
06:00 Uhr

52
03:50 Uhr
23
16:35 Uhr
1035.4
00:00 Uhr

1029.9
18:20 Uhr
1032.8
0,000
00:00 Uhr
0,000
2.032
222
562
12:05 Uhr
1.5
11:40 Uhr

06:40:00
5,2
1
30,6
09:55 Uhr

5
-8.1
19:10 Uhr
-10.8
16:35 Uhr
-0.9
06:00 Uhr
0
00:00 Uhr
1.5
16:00 Uhr
3.1
16:00 Uhr
0.2
15:45 Uhr
26
Zeitraffer
12:41
10.7
16:15 Uhr
-0.4
06:00 Uhr

56
06:20 Uhr
32
13:10 Uhr
1030.1
07:45 Uhr

1025.6
23:35 Uhr
1028.3
0,000
00:00 Uhr
0,000
2.057
219
563
11:50 Uhr
1.3
11:35 Uhr

06:13:00
6,0
1
30,6
13:40 Uhr

5
-2.9
19:35 Uhr
-8.8
00:30 Uhr
-1.4
07:10 Uhr
0
00:00 Uhr
1.7
15:30 Uhr
3.5
16:35 Uhr
0.8
16:40 Uhr
27
Zeitraffer
12:44
15.4
15:30 Uhr
4.0
05:45 Uhr

63
23:50 Uhr
35
15:30 Uhr
1025.7
00:00 Uhr

1021.0
17:10 Uhr
1023.3
0,000
00:00 Uhr
0,000
2.134
201
537
12:10 Uhr
1.3
11:15 Uhr

06:03:00
4,8
1
20,9
16:00 Uhr

4
1.3
17:55 Uhr
-3.8
00:55 Uhr
2.3
07:40 Uhr
0
00:00 Uhr
2.1
14:45 Uhr
4.1
14:55 Uhr
0.7
17:25 Uhr
28
Zeitraffer
12:49
14.8
14:40 Uhr
1.7
05:55 Uhr

90
06:00 Uhr
34
13:55 Uhr
1021.4
00:00 Uhr

1016.8
17:05 Uhr
1019.1
0,000
00:00 Uhr
0,000
1.625
205
504
11:30 Uhr
1.3
11:30 Uhr

05:51:00
1,4
0
22,5
13:05 Uhr

4
2.7
08:45 Uhr
-2.5
17:40 Uhr
1.7
05:55 Uhr
0
00:00 Uhr
2.4
14:45 Uhr
4.5
16:00 Uhr
0.6
16:00 Uhr
29
Zeitraffer
12:53
5.5
00:00 Uhr
-0.3
23:45 Uhr

84
09:20 Uhr
48
21:25 Uhr
1030.1
23:05 Uhr

1017.6
04:30 Uhr
1022.6
2,400
17:35 Uhr
0,200
0.712
60
192
14:15 Uhr
0.7
13:50 Uhr

00:00:00
5,5
1
45,1
14:20 Uhr

6
2.5
10:40 Uhr
-8.4
21:25 Uhr
-5.6
13:20 Uhr
0
00:00 Uhr
1.5
00:00 Uhr
3.5
00:00 Uhr
1.4
13:35 Uhr
30
Zeitraffer
12:57
4.7
13:00 Uhr
-2.7
06:40 Uhr

91
23:40 Uhr
46
10:30 Uhr
1030.3
00:40 Uhr

1024.5
17:10 Uhr
1027.0
2,400
15:00 Uhr
0,400
0.711
118
484
09:55 Uhr
0.8
11:35 Uhr

02:45:00
0,4
0
9,7
11:20 Uhr

2
0.6
18:25 Uhr
-8.1
03:35 Uhr
-2.7
06:40 Uhr
0
00:00 Uhr
1.7
10:15 Uhr
3.7
10:50 Uhr
0.0
00:00 Uhr
31
Zeitraffer
13:01
5.7
13:40 Uhr
-1.2
06:45 Uhr

91
00:05 Uhr
41
17:20 Uhr
1031.7
09:40 Uhr

1027.0
23:50 Uhr
1029.5
0,000
00:00 Uhr
0,000
1.016
169
735
13:35 Uhr
1.9
13:35 Uhr

04:14:00
1,7
0
22,5
11:00 Uhr

4
-0.1
00:05 Uhr
-7.3
17:20 Uhr
-1.2
06:45 Uhr
0
00:00 Uhr
1.9
15:35 Uhr
4.0
15:45 Uhr
0.0
00:00 Uhr
Stationsstandorte || Wetterblog || Wissenswertes || Downloads || Seitenhistorie || Partner || Impressum / Datenschutz